FENGYUN 1C DEB, 31367

Orbit data source: Space-Track

FENGYUN 1C DEB, 31367 is space debris in SSO originally from a launch on Mon, 10 May 1999 UTC launched from the Taiyaun Space Center, China (TSC). Fengyun 1C debris stems from the Chinese weather satellite Fengyun-1C, which was intentionally destroyed by a Chinese anti-satellite missile in 2007. This event dramatically increased the amount of space debris, with thousands of trackable fragments posing hazards to satellites and human spaceflight. The Fengyun 1C debris cloud has become a focal point in discussions about space sustainability and the need for international regulations to prevent the creation of new debris.

Loading next visibility...
Identifier
31367, 1999-025BRX
Orbit
SSO
Country
Flag of CNCN / PRC
Related business
Manufacturer
Unknown
Mission
Spacecraft
Bus & Motor
Unknown
Mass
Unknown
Launch date (UTC)
1999-05-10 (27 years ago)
Launch vehicle
Unknown
Launch site
Taiyaun Space Center, China (TSC)
Object type
Payload
Rocket body
Debris
Shape & HBR
Unknown shape, 0.1 m
Radar Cross Section
Small (<0.1 m²)

Expand to show TLE details & history
Last TLE update: 2 days ago

TLE from 2 days ago
0 FENGYUN 1C DEB
1 31367U 99025BRX 26167.70000909  .00001026  00000-0  27214-3 0  9990
2 31367  98.7333  73.2333 0097330 174.8715 243.5375 14.48235896 11372
Epoch: 2026-06-16T16:48Z
TLE epoch observation values (Epoch: 2026-06-16T16:48:00.785Z)
Latitude
56.49152°
Longitude
-97.08122°
Altitude
772.21 km
Speed
7.457 km/s
True Right ascension
03h 59m 33s
True Declination
56° 20' 00"
Sunlit
Object was in daylight at epoch
Visualization orbit readout
Latitude
Unknown
Longitude
Unknown
Altitude
Unknown
Speed
Unknown
Apparent Right ascension
Unknown
Apparent Declination
Unknown
Sunlit
N/A
Visualization observer readout
Local Sidereal Time
07:53:05
Azimuth
Unknown
Elevation
Unknown
Doppler factor
Unknown
Orbital elements
Apogee altitude
797.707 km
Perigee altitude
659.369 km
Semi-major axis
7,106.675 km
Eccentricity
0.00973
Inclination
98.7333°
RAAN
73.2333°
Arg. of periapsis
174.8715°
True anomaly
242.54447°
Mean anomaly
243.5375°
Eccentric anomaly
243.04044°
Mean motion
3.62279 °/min
Orbital period
99.37 mins
BSTAR
0.00027214
Loading maneuver chart data...
Computing Atmospheric mass density...
Loading historical data...
Loading historical data...
Loading historical data...
Loading historical data...
Loading historical data...
Loading historical data...
Loading historical data...

Documentation

Showing up to 5 results
|